Location: Newark
(41.0400°S, 62.7845°W)
Time: 00:20:14
(UTC+00:00)

Vanguard 2 - Pass Details

Date: 06 December 2021
Orbit: 554 x 2935 km, 32.9° (Epoch: 27 January)

Event Time Altitude Azimuth Distance (km) Brightness Sun altitude
Rises 03:05:47 0° 314° (NW) 6,445 12.0 -25.1°
Reaches altitude 10° 03:10:07 10° 319° (NW) 5,601 11.6 -25.3°
Maximum altitude 03:26:22 46° 25° (NNE) 3,556 10.4 -25.9°
Drops below altitude 10° 03:40:55 10° 90° (E) 5,077 11.6 -26.3°
Sets 03:44:35 0° 96° (E) 5,823 12.0 -26.3°
